Weather History for Centralia, IL

Change the Weather History Date:

Sunday, March 31, 2013

  Actual Average (KSLO) Record (KSLO)
Temperature  
Mean Temperature 58 °F -  
Max Temperature 67 °F 61 °F 84 °F (1981)
Min Temperature 49 °F 38 °F 16 °F (1969)
Degree Days  
Heating Degree Days 7    
Growing Degree Days 8 (Base 50)    
Moisture  
Dew Point 47 °F    
Average Humidity 73    
Maximum Humidity 95    
Minimum Humidity 35    
Precipitation  
Precipitation 0.00 in - - ()
Sea Level Pressure  
Sea Level Pressure 29.89 in    
Wind  
Wind Speed 5 mph (West)    
Max Wind Speed 15 mph    
Max Gust Speed 18 mph    
Visibility 6 miles    
Events Rain    
Averages and records for this station are not official NWS values.
T = Trace of Precipitation, MM = Missing Value Source: NWS Daily Summary

Daily Weather History Graph

Daily Weather History Graph

Search for Another Location

Airport:

Trip Planner

Search our weather history database for the weather conditions in past years. The results will help you decide how hot, cold, wet, or windy it might be!

Date:

Astronomy

Mar. 31, 2013 Rise Set
Actual Time 6:42 AM CDT 7:19 PM CDT
Civil Twilight 6:15 AM CDT 7:45 PM CDT
Nautical Twilight 5:44 AM CDT 8:17 PM CDT
Astronomical Twilight 5:11 AM CDT 8:49 PM CDT
Moon No Moon Rise 9:33 AM CDT (3/31)
Length of Visible Light 13h 30m
Length of Day
12h 36m
Waning Gibbous, 77% of the Moon is Illuminated
Mar 31
Waning Gibbous
Apr 2
Last Quarter
Apr 10
New
Apr 18
First Quarter
Apr 25
Full

Hourly Weather History & Observations

Time (CDT) Temp. Dew Point Humidity Pressure Visibility Wind Dir Wind Speed Gust Speed Precip Events Conditions
12:15 AM 49.6 °F 47.8 °F 94% 29.92 in 2.0 mi Calm Calm - N/A   Mist
12:35 AM 49.5 °F 47.7 °F 94% 29.92 in 2.0 mi Calm Calm - N/A   Mist
12:55 AM 49.5 °F 47.7 °F 94% 29.91 in 1.8 mi Calm Calm - N/A   Mist
1:15 AM 49.6 °F 48.2 °F 95% 29.91 in 1.8 mi Calm Calm - N/A   Mist
1:35 AM 50.0 °F 48.2 °F 94% 29.90 in 1.5 mi South 3.5 mph - N/A   Mist
1:55 AM 50.0 °F 48.4 °F 94% 29.90 in 2.0 mi South 4.6 mph - N/A   Mist
2:15 AM 50.2 °F 48.6 °F 94% 29.89 in 2.0 mi SSW 5.8 mph - N/A   Mist
2:35 AM 50.4 °F 48.7 °F 94% 29.88 in 2.0 mi SW 3.5 mph - N/A   Mist
2:55 AM 50.4 °F 48.6 °F 94% 29.87 in 2.0 mi SSW 3.5 mph - N/A   Mist
3:15 AM 50.4 °F 48.6 °F 94% 29.87 in 1.8 mi SW 3.5 mph - N/A   Mist
3:35 AM 50.4 °F 48.6 °F 94% 29.88 in 1.8 mi SW 5.8 mph - N/A   Mist
3:55 AM 50.5 °F 49.1 °F 95% 29.87 in 1.8 mi SW 5.8 mph - N/A   Mist
4:15 AM 50.9 °F 49.1 °F 94% 29.86 in 1.8 mi WSW 4.6 mph - N/A   Mist
4:35 AM 50.9 °F 49.1 °F 94% 29.87 in 1.8 mi WSW 6.9 mph - N/A   Mist
4:55 AM 50.9 °F 49.1 °F 94% 29.87 in 2.5 mi West 8.1 mph - N/A   Mist
5:15 AM 50.9 °F 49.1 °F 94% 29.88 in 2.0 mi West 9.2 mph - N/A   Mist
5:35 AM 50.7 °F 48.9 °F 94% 29.88 in 1.8 mi West 6.9 mph - N/A   Mist
5:55 AM 50.5 °F 48.7 °F 94% 29.87 in 2.0 mi West 5.8 mph - N/A   Mist
6:15 AM 50.9 °F 49.1 °F 94% 29.88 in 2.0 mi WNW 8.1 mph - N/A   Mist
6:35 AM 50.9 °F 49.1 °F 94% 29.88 in 2.0 mi WNW 6.9 mph - N/A   Mist
6:55 AM 50.9 °F 49.1 °F 94% 29.89 in 2.0 mi WNW 8.1 mph - N/A   Mist
7:15 AM 50.9 °F 48.7 °F 92% 29.89 in 1.8 mi NW 8.1 mph - N/A   Mist
7:35 AM 50.9 °F 48.4 °F 91% 29.90 in 2.0 mi WNW 6.9 mph - N/A   Mist
7:55 AM 50.9 °F 48.4 °F 91% 29.90 in 1.8 mi West 4.6 mph - N/A   Mist
8:15 AM 50.9 °F 48.4 °F 91% 29.91 in 2.0 mi WNW 4.6 mph - N/A   Mist
8:35 AM 51.1 °F 48.6 °F 91% 29.91 in 2.0 mi WNW 4.6 mph - N/A   Mist
8:55 AM 51.3 °F 48.7 °F 91% 29.91 in 2.0 mi West 5.8 mph - N/A   Mist
9:15 AM 51.4 °F 48.6 °F 90% 29.90 in 2.5 mi Calm Calm - N/A   Mist
9:35 AM 51.8 °F 49.1 °F 90% 29.90 in 3.0 mi Calm Calm - N/A Rain Light Rain
9:55 AM 52.7 °F 49.1 °F 88% 29.91 in 4.0 mi West 4.6 mph - N/A   Mist
10:15 AM 53.1 °F 49.3 °F 87% 29.92 in 4.0 mi WSW 4.6 mph - N/A   Mist
10:35 AM 54.0 °F 49.8 °F 86% 29.92 in 4.0 mi WSW 5.8 mph - N/A   Mist
10:55 AM 55.6 °F 51.1 °F 85% 29.92 in 5.0 mi WSW 5.8 mph - N/A   Haze
11:15 AM 55.4 °F 49.5 °F 80% 29.92 in 5.0 mi WSW 3.5 mph - N/A   Haze
11:35 AM 57.2 °F 50.2 °F 77% 29.90 in 7.0 mi Calm Calm - N/A   Unknown
11:55 AM 57.4 °F 49.5 °F 75% 29.89 in 7.0 mi Calm Calm - N/A   Scattered Clouds
12:15 PM 58.8 °F 50.2 °F 73% 29.88 in 7.0 mi SW 3.5 mph - N/A   Clear
12:35 PM 59.9 °F 49.6 °F 69% 29.88 in 10.0 mi SW 4.6 mph - N/A   Scattered Clouds
12:55 PM 60.8 °F 51.1 °F 70% 29.88 in 10.0 mi SSW 3.5 mph - N/A   Scattered Clouds
1:15 PM 61.0 °F 49.5 °F 66% 29.89 in 10.0 mi West 4.6 mph - N/A   Clear
1:35 PM 62.2 °F 50.4 °F 65% 29.89 in 10.0 mi SSW 6.9 mph - N/A   Clear
1:55 PM 63.0 °F 50.0 °F 63% 29.89 in 10.0 mi SW 9.2 mph - N/A   Scattered Clouds
2:15 PM 63.1 °F 48.6 °F 59% 29.88 in 10.0 mi WSW 10.4 mph 16.1 mph N/A   Scattered Clouds
2:35 PM 63.9 °F 48.7 °F 58% 29.87 in 10.0 mi SSW 8.1 mph - N/A   Scattered Clouds
2:55 PM 64.4 °F 48.7 °F 57% 29.87 in 10.0 mi WSW 15.0 mph - N/A   Mostly Cloudy
3:15 PM 64.4 °F 47.3 °F 54% 29.87 in 10.0 mi SW 12.7 mph 16.1 mph N/A   Scattered Clouds
3:35 PM 65.3 °F 46.9 °F 51% 29.86 in 10.0 mi WSW 8.1 mph 18.4 mph N/A   Scattered Clouds
3:55 PM 66.2 °F 47.7 °F 51% 29.85 in 10.0 mi WSW 15.0 mph - N/A   Scattered Clouds
4:15 PM 66.2 °F 47.7 °F 51% 29.85 in 10.0 mi SW 8.1 mph - N/A   Clear
4:35 PM 66.9 °F 46.0 °F 47% 29.85 in 10.0 mi WSW 13.8 mph 17.3 mph N/A   Scattered Clouds
4:55 PM 67.1 °F 44.6 °F 44% 29.85 in 10.0 mi West 9.2 mph 17.3 mph N/A   Mostly Cloudy
5:15 PM 67.3 °F 42.1 °F 40% 29.85 in 10.0 mi West 10.4 mph - N/A   Scattered Clouds
5:35 PM 67.1 °F 39.0 °F 36% 29.85 in 10.0 mi West 11.5 mph 17.3 mph N/A   Clear
5:55 PM 66.9 °F 38.1 °F 35% 29.85 in 10.0 mi West 12.7 mph - N/A   Scattered Clouds
6:15 PM 66.7 °F 38.5 °F 35% 29.85 in 10.0 mi West 12.7 mph - N/A   Mostly Cloudy
6:35 PM 65.5 °F 38.3 °F 37% 29.85 in 10.0 mi West 10.4 mph - N/A   Mostly Cloudy
6:55 PM 64.4 °F 40.8 °F 42% 29.85 in 10.0 mi West 11.5 mph - N/A   Unknown
7:15 PM 63.3 °F 41.9 °F 46% 29.85 in 10.0 mi West 5.8 mph - N/A   Unknown
7:35 PM 61.7 °F 42.6 °F 50% 29.86 in 10.0 mi NW 5.8 mph - N/A   Unknown
7:55 PM 61.7 °F 43.5 °F 51% 29.86 in 10.0 mi WNW 6.9 mph - N/A   Unknown
8:15 PM 60.8 °F 43.7 °F 53% 29.87 in 10.0 mi WNW 5.8 mph - N/A   Unknown
8:35 PM 58.6 °F 43.9 °F 58% 29.88 in 10.0 mi West 4.6 mph - N/A   Unknown
8:55 PM 60.3 °F 42.1 °F 51% 29.88 in 10.0 mi West 4.6 mph - N/A   Unknown
9:15 PM 58.8 °F 43.7 °F 57% 29.88 in 10.0 mi WNW 4.6 mph - N/A   Unknown
9:35 PM 58.5 °F 43.3 °F 57% 29.89 in 10.0 mi NW 4.6 mph - N/A   Unknown
9:55 PM 57.4 °F 44.4 °F 62% 29.90 in 10.0 mi NNW 8.1 mph - N/A   Unknown
10:15 PM 58.1 °F 45.0 °F 62% 29.91 in 10.0 mi NNW 9.2 mph - N/A   Unknown
10:35 PM 57.0 °F 45.3 °F 65% 29.91 in 10.0 mi NNW 4.6 mph - N/A   Unknown
10:55 PM 56.5 °F 44.8 °F 65% 29.91 in 10.0 mi NW 5.8 mph - N/A   Unknown
11:15 PM 57.0 °F 42.8 °F 59% 29.92 in 10.0 mi NW 8.1 mph - N/A   Unknown
11:35 PM 55.4 °F 42.8 °F 63% 29.92 in 10.0 mi NW 6.9 mph - N/A   Unknown
11:55 PM 54.5 °F 41.2 °F 61% 29.92 in 10.0 mi NW 8.1 mph - N/A   Unknown